AirNav   Air Wisconsin Up To $57,000 Bonus
 
 899 users online  

KCLW Clearwater Air Park
Clearwater, Florida, USA

GOING TO CLEARWATER?


FAA INFORMATION EFFECTIVE 16 JUNE 2022

Location

FAA Identifier: CLW
Lat/Long: 27-58-37.9700N 082-45-32.6050W
27-58.632833N 082-45.543417W
27.9772139,-82.7590569
(estimated)
Elevation: 71 ft. / 21.6 m (surveyed)
Variation: 04W (2000)
From city: 3 miles NE of CLEARWATER, FL
Time zone: UTC -4 (UTC -5 during Standard Time)
Zip code: 33755

Airport Operations

Airport use: Open to the public
Activation date: 10/1942
Control tower: no
ARTCC: MIAMI CENTER
FSS: SAINT PETERSBURG FLIGHT SERVICE STATION
NOTAMs facility: CLW (NOTAM-D service available)
Attendance: 0700-2300
LNDGS & TKOFS PERMITTED 0700-2300.
Wind indicator: lighted
Segmented circle: yes
SEG CIRCLE PAINTED ON RWY.
Lights: ACTVT VASI RWY 16 & 34; MIRL RWY 16/34 - CTAF.

Airport Communications

CTAF/UNICOM: 123.0
WX AWOS-3P: 119.225 (727-449-2184)
TAMPA APPROACH: 125.3
TAMPA DEPARTURE: 125.3
WX ASOS at PIE (6 nm SE): 134.5 (727-531-3456)
WX ASOS at TPA (12 nm E): 126.45 (813-873-7228)
WX ASOS at SPG (15 nm SE): 118.875 (727-821-4334)
WX AWOS-3 at TPF (17 nm E): 118.925 (813-251-6824)

Airport Services

Fuel available: 100LL JET-A
Parking: tiedowns
Airframe service: MAJOR
Powerplant service: MAJOR
Bottled oxygen: NONE
Bulk oxygen: NONE

Runway Information

Runway 16/34

Dimensions: 4108 x 75 ft. / 1252 x 23 m
Surface: asphalt, in fair condition
Weight bearing capacity: 
PCN 8 /F/B/X/T
Runway edge lights: medium intensity
RUNWAY 16  RUNWAY 34
Latitude: 27-58.938000N27-58.327667N
Longitude: 082-45.709667W082-45.377167W
Elevation: 65.9 ft.69.3 ft.
Traffic pattern: leftright
Displaced threshold: 357 ft.846 ft.
Markings: basic, in fair conditionbasic, in fair condition
Visual slope indicator: 4-box VASI on left (3.50 degrees glide path)4-box VASI on right (3.50 degrees glide path)
Touchdown point: yes, no lightsyes, no lights
Obstructions: 17 ft. pole, 250 ft. from runway, 110 ft. right of centerline, 3:1 slope to clear
RWY 16 APCH RATIO 20:1 TO DSPLCD THLD DUE TO 42 FT TREE; 125 LEFT OF RWY CNTRLN; 465 FT FROM RWY END.
40 ft. trees, 360 ft. from runway, 125 ft. left of centerline, 4:1 slope to clear
RWY 34 APCH RATIO 20:1 TO DSPLCD THLD DUE TO 71' TREE; 125'L OF RWY CNTRLN; 565' FROM RWY END.

Airport Ownership and Management from official FAA records

Ownership: Publicly-owned
Owner: CITY OF CLEARWATER
P.O. BOX 4748, ATTN: MARINE DEPARTMENT
CLEARWATER, FL 33758-4748
Phone 727-562-4959
CTC PERSON: MICHAEL MACDONALD 727-224-7005.
Manager: MICHAEL MACDONALD
25 CAUSEWAY BLVD., P.O. BOX4748
CLEARWATER, FL 33767
Phone (727) 462-6954
ARPT PHYS ADS: 1000 N HERCULES AVENUE, CLEARWATER, FL 33765 727-462-6954 FAX: 727-462-6957.

Airport Operational Statistics

Aircraft based on the field: 36
Single engine airplanes: 30
Multi engine airplanes: 5
Helicopters: 1
    
Aircraft operations: avg 139/day *
90% local general aviation
10% transient general aviation
<1% air taxi
<1% military
* for 12-month period ending 14 December 2017

Additional Remarks

FULL STOP LNDG ONLY. NO TOUCH & GO.
RY 16/34 TREES PENETRATE 7:1 TRANS SFC W SIDE.
NOISE ABATEMENT PROCEDURES IN EFFECT CTC FBO 727-443-3433.
FOR CD CTC TAMPA APCH AT 813-878-2528

Instrument Procedures

NOTE: All procedures below are presented as PDF files. If you need a reader for these files, you should download the free Adobe Reader.

NOT FOR NAVIGATION. Please procure official charts for flight.
FAA instrument procedures published for use from 16 June 2022 at 0901Z to 14 July 2022 at 0900z.

 
STARs - Standard Terminal Arrivals
BRDGE EIGHT   download (248KB)

Other nearby airports with instrument procedures:

KPIE - St Pete-Clearwater International Airport (6 nm SE)
KTPA - Tampa International Airport (12 nm E)
KSPG - Albert Whitted Airport (15 nm SE)
KMCF - MacDill Air Force Base (15 nm SE)
KTPF - Peter O Knight Airport (17 nm E)
 
Loc | Ops | Rwys | IFR | FBO | Links
Com | Nav | Svcs | Stats | Notes


 
Area around KCLW (Clearwater Air Park)
 
Road maps at: MapQuest Bing Google
 
Aerial photo
WARNING: Photo may not be current or correct
Aerial photo of KCLW (Clearwater Air Park)
Photo by David King
Taken in October 2013
looking northwest from 1,500 ft.

Do you have a better or more recent aerial photo of Clearwater Air Park that you would like to share? If so, please send us your photo.

 
Sectional chart

 
Airport distance calculator
Flying to Clearwater Air Park? Find the distance to fly.

From to KCLW

Sunrise and sunset
Times for 25-Jun-2022
 Local
(UTC-4)
 Zulu
(UTC)
Morning civil twilight06:1110:11
Sunrise06:3710:37
Sunset20:3000:30
Evening civil twilight20:5700:57

Current date and time
Zulu (UTC)  25-Jun-2022 12:34:55
Local (UTC-4)  25-Jun-2022 08:34:55
 
METAR
KCLW 251215Z AUTO 00000KT 10SM CLR 25/22 A3001 RMK AO2
KPIE 
5nm SE 
251153Z 00000KT 10SM CLR 26/24 A3000 RMK AO2 SLP159 7//// T02560239 10256 20239 53014
KTPA 
12nm E 
251153Z 00000KT 10SM FEW032 BKN150 BKN280 27/23 A3001 RMK AO2 SLP162 CB DSNT S 70019 T02670228 10272 20256 53015
KSPG 
14nm SE 
251153Z 13004KT 10SM CLR 27/23 A2999 RMK AO2 SLP153 70025 T02670228 10272 20261 53013
KMCF 
15nm SE 
251156Z AUTO 00000KT 10SM FEW085 24/23 A2997 RMK AO2 DZE02 SLP152 P0000 60000 T02400228 10246 20228 52014 FZRANO $
TAF
KPIE 
5nm SE 
251134Z 2512/2612 VRB04KT P6SM SCT250 FM251400 05005KT P6SM SCT025 BKN250 FM251700 33008KT P6SM VCTS SCT030CB BKN100 FM260000 06008KT P6SM VCSH BKN050 BKN100 FM260300 09006KT P6SM SCT050 BKN250
KTPA 
12nm E 
251134Z 2512/2618 VRB03KT P6SM SCT250 FM251600 32008KT P6SM VCTS SCT030CB BKN100 FM252200 01006KT P6SM VCSH BKN040 BKN100 FM260200 06004KT P6SM SCT050 BKN250 FM261500 14006KT P6SM SCT030 SCT250
KMCF 
15nm SE 
250900Z 2509/2615 13006KT 9999 SCT020 BKN030 QNH2990INS BECMG 2513/2514 34010G15KT 9000 -SHRA VCTS SCT020CB BKN030 QNH2994INS TEMPO 2518/2600 VRB20G30KT 8000 -TSRA BKN020CB BECMG 2600/2601 03009KT 9000 -SHRA SCT020 BKN030 QNH2996INS BECMG 2604/2605 06006KT 9999 NSW SCT015 BKN030 QNH2998INS TX34/2518Z TN22/2511Z
NOTAMs
Click for the latest NOTAMs
NOTAMs are issued by the DoD/FAA and will open in a separate window not controlled by AirNav.

 

 
 

FBO, Fuel Providers, and Aircraft Ground Support

  
 Business Name 
 
 Contact 
 
 Services / Description 
 
Fuel Prices
 
Comments
  
 Clearwater Airpark, Inc.
UNICOM 123.00
727-443-3433
[web site]
[email]
Clearwater Airpark has been named "2014 General Aviation Airport of the Year" by the Florida Dept. of Transportation.

Located in Clearwater, facilitating your needs with no landing fees, a new longer runway, now 4108' x 75', crew car and full service Jet A and 100LL at superior pricing.
 
AirBoss™ fuel program  
 
More info about Clearwater Airpark, Inc.
Phillips 66
100LL Jet A
FS $8.18 $6.75 
GUARANTEED
AirBossMEMBERS
ONLY
Discounts
LoginJoin
 
   3 read write
FS=Full service
Update Fuel Prices
 

Would you like to see your business listed on this page?

 If your business provides an interesting product or service to pilots, flight crews, aircraft, or users of the Clearwater Air Park, you should consider listing it here.  To start the listing process, click on the button below
 
Add a business
 

Other Pages about Clearwater Air Park

www.clearwaterairpark.net
 
Update a link
 
Copyright © AirNav, LLC. All rights reserved. Privacy Policy  Contact